1507881600.17,56759,14.81,73896.3,1.75,-18.11,-11.89,0,*7E
1507881601.43,56760,14.81,73906.5,1.75,-17.55,-11.29,0,*71
1507881602.68,56761,14.81,73898.3,1.75,-18.01,-11.59,0,*79
1507881603.91,56762,14.81,73898.8,1.73,-19.17,-12.43,0,*72
1507881605.19,56763,14.81,73882.5,1.71,-19.57,-12.53,0,*74
1507881606.44,56764,14.81,73874.8,1.67,-18.65,-11.81,0,*78
1507881607.66,56765,14.81,73884.0,1.65,-19.91,-12.57,0,*79
1507881608.87,56766,14.81,73870.8,1.61,-20.43,-13.23,0,*79
1507881610.09,56767,14.81,73884.3,1.57,-19.95,-12.57,0,*7E
1507881611.36,56768,14.81,73886.3,1.55,-19.17,-11.67,0,*79
1507881612.59,56769,14.88,73878.8,1.53,-18.79,-11.55,0,*76
1507881613.86,56770,14.81,73898.8,1.51,-18.55,-11.29,0,*79
1507881615.09,56771,14.81,73874.3,1.49,-20.29,-12.71,0,*7F
1507881616.38,56772,14.81,73920.0,1.47,-19.65,-11.93,0,*7F
1507881617.61,56773,14.88,73914.8,1.45,-18.35,-10.45,0,*72
1507881618.86,56774,14.81,73904.8,1.45,-17.03,-9.61,0,*41
1507881620.06,56775,14.88,73886.8,1.45,-15.67,-9.05,0,*42
1507881621.29,56776,14.88,73864.5,1.47,-18.17,-10.89,0,*75
1507881622.52,56777,14.88,73864.3,1.47,-18.17,-10.89,0,*74
1507881623.75,56778,14.81,73858.0,1.45,-20.79,-13.11,0,*78
1507881624.98,56779,14.88,73854.3,1.39,-23.85,-15.99,0,*74
1507881626.23,56780,14.88,73844.8,1.33,-22.31,-14.23,0,*76
1507881627.46,56781,14.88,73848.8,1.31,-19.71,-11.81,0,*74
1507881628.69,56782,14.81,73826.3,1.27,-20.39,-12.79,0,*72
1507881629.92,56783,14.88,73830.0,1.27,-18.99,-11.29,0,*74
1507881631.14,56784,14.88,73818.0,1.25,-16.03,-8.85,0,*42
1507881632.34,56785,14.88,73854.5,1.27,-15.15,-8.25,0,*4F
1507881633.61,56786,14.88,73870.0,1.29,-13.79,-6.97,0,*49
1507881634.86,56787,14.88,73884.0,1.33,-13.33,-6.51,0,*47
1507881636.05,56788,14.88,73892.3,1.39,-13.11,-6.39,0,*4C
1507881637.32,56789,14.88,73894.0,1.47,-13.01,-6.23,0,*4E
1507881638.52,56790,14.88,73896.5,1.49,-12.89,-6.05,0,*4D
1507881639.77,56791,14.88,73910.8,1.53,-12.11,-5.19,0,*48
1507881640.99,56792,14.88,73914.0,1.57,-12.03,-4.89,0,*44
1507881642.24,56793,14.88,73908.3,1.59,-10.41,-4.37,0,*4A
1507881643.43,56794,14.88,73902.5,1.65,-8.63,-4.53,0,*79
1507881644.66,56795,14.88,73892.5,1.69,-9.27,-5.27,0,*77
1507881645.9,56796,14.88,73906.0,1.73,-12.03,-7.27,0,*41
1507881647.16,56797,14.88,73858.8,1.71,-15.21,-9.45,0,*4F
1507881648.41,56798,14.88,73878.8,1.71,-15.49,-9.15,0,*4B
1507881649.62,56799,14.88,73910.8,1.71,-14.65,-8.59,0,*4C
1507881650.83,56800,14.88,73904.3,1.71,-14.89,-8.71,0,*4B
1507881652.08,56801,14.88,73898.0,1.71,-13.33,-6.73,0,*40
1507881653.29,56802,14.88,73898.3,1.73,-12.39,-5.39,0,*47
1507881654.57,56803,14.88,73914.0,1.77,-12.07,-4.93,0,*4E
1507881655.81,56804,14.88,73912.0,1.81,-10.79,-4.13,0,*43
1507881657.05,56805,14.88,73922.8,1.81,-8.21,-3.59,0,*7F
1507881658.26,56806,14.88,73926.8,1.89,-6.01,-3.15,0,*70
1507881659.5,56807,14.88,73936.5,1.91,-6.19,-3.43,0,*72
1507881660.71,56808,14.88,73938.0,1.95,-7.15,-3.67,0,*72
1507881661.94,56809,14.88,73946.0,1.97,-8.03,-3.83,0,*73
1507881663.13,56810,14.88,73938.5,1.99,-10.19,-6.01,0,*48
1507881664.34,56811,14.94,73928.0,1.97,-9.93,-7.15,0,*79
1507881665.59,56812,14.88,73906.0,1.99,-8.51,-6.93,0,*74
1507881666.81,56813,14.94,73904.0,1.99,-8.51,-7.11,0,*7E
1507881668.01,56814,14.94,73894.5,1.97,-10.53,-8.63,0,*46
1507881669.21,56815,14.88,73890.5,1.95,-12.03,-9.01,0,*47
1507881670.41,56816,14.94,73904.8,1.95,-12.21,-7.53,0,*4D
1507881671.65,56817,14.94,73902.3,1.93,-13.73,-7.95,0,*46
1507881672.92,56818,14.94,73900.0,1.93,-13.61,-7.95,0,*4A
1507881674.15,56819,14.94,73904.8,1.91,-11.55,-6.39,0,*4B
1507881675.37,56820,14.94,73910.3,1.91,-7.99,-4.29,0,*75
1507881676.6,56821,14.94,73912.5,1.95,-7.39,-4.81,0,*78
1507881677.85,56822,14.94,73900.8,1.95,-7.69,-5.61,0,*71
1507881679.09,56823,14.94,73898.0,1.99,-7.61,-5.61,0,*74
1507881680.33,56824,14.94,73884.5,2.01,-8.03,-6.01,0,*7F
1507881681.55,56825,14.94,73882.8,1.99,-9.37,-7.23,0,*7B
1507881682.73,56826,14.94,73876.0,1.99,-9.93,-7.83,0,*7C
1507881683.92,56827,14.94,73870.3,1.99,-10.09,-8.21,0,*41
1507881685.16,56828,14.94,73870.3,1.97,-10.63,-8.71,0,*49
1507881686.36,56829,14.94,73876.0,1.95,-11.11,-8.89,0,*49
1507881687.61,56830,14.94,73884.8,1.93,-10.35,-7.65,0,*4D
1507881688.83,56831,14.94,73890.3,1.93,-12.03,-8.45,0,*46
1507881690.08,56832,14.94,73888.8,1.93,-12.15,-8.37,0,*47
1507881691.33,56833,14.94,73886.3,1.93,-13.33,-9.19,0,*4E
1507881692.58,56834,14.94,73886.5,1.95,-11.93,-8.11,0,*4E
1507881693.85,56835,14.94,73884.8,1.93,-11.07,-6.93,0,*40
1507881695.07,56836,14.94,73894.5,1.93,-11.11,-6.85,0,*43
1507881696.32,56837,14.94,73906.8,1.95,-10.41,-5.73,0,*4A
1507881697.57,56838,14.94,73912.8,1.97,-11.63,-6.59,0,*4D
1507881698.76,56839,14.94,73920.5,1.99,-11.19,-6.31,0,*41
1507881699.96,56840,14.94,73920.5,1.99,-11.45,-6.55,0,*44
1507881701.2,56841,14.94,73924.5,2.03,-11.89,-7.05,0,*41
1507881702.45,56842,15.0,73922.8,2.01,-12.07,-7.49,0,*4D
1507881703.7,56843,15.0,73924.3,2.03,-11.67,-7.65,0,*45
1507881704.97,56844,14.94,73928.3,2.01,-11.55,-8.03,0,*4E
1507881706.25,56845,14.94,73916.8,2.01,-10.71,-7.77,0,*44
1507881707.45,56846,15.0,73922.5,1.99,-11.81,-8.67,0,*45
1507881708.69,56847,15.0,73930.5,1.97,-11.97,-8.55,0,*4C
1507881709.92,56848,15.0,73934.8,1.97,-12.61,-8.75,0,*4B
1507881711.15,56849,15.0,73940.0,1.99,-14.19,-9.57,0,*4C
1507881712.42,56850,15.0,73940.0,1.97,-15.89,-10.75,0,*7A
1507881713.68,56851,15.0,73938.5,1.93,-15.85,-10.45,0,*70
1507881714.93,56852,15.0,73934.0,1.93,-15.85,-9.89,0,*4B
1507881716.17,56853,15.0,73922.3,1.91,-15.01,-9.49,0,*48
1507881717.36,56854,15.0,73922.8,1.91,-14.37,-9.19,0,*4E
1507881718.58,56855,15.0,73918.3,1.89,-15.25,-9.93,0,*46
1507881719.84,56856,15.0,73910.3,1.85,-16.23,-10.49,0,*73
1507881721.07,56857,15.0,73920.0,1.83,-18.69,-12.35,0,*7D
1507881722.29,56858,15.0,73908.8,1.79,-19.91,-12.65,0,*74
1507881723.55,56859,15.0,73882.3,1.77,-19.91,-12.71,0,*7E
1507881724.78,56860,15.0,73892.0,1.69,-20.79,-14.15,0,*73
1507881726.01,56861,15.0,73878.0,1.65,-20.35,-13.79,0,*7B
1507881727.23,56862,15.0,73836.8,1.57,-18.21,-11.77,0,*7B
1507881728.47,56863,15.0,73820.0,1.57,-16.27,-9.83,0,*40
1507881729.75,56864,15.0,73842.0,1.59,-14.05,-7.31,0,*4C
1507881731.02,56865,15.0,73834.8,1.59,-15.01,-9.15,0,*40
1507881732.28,56866,15.0,73832.8,1.59,-16.09,-10.15,0,*70
1507881733.53,56867,15.0,73838.3,1.59,-13.07,-7.39,0,*42
1507881734.78,56868,15.0,73830.0,1.61,-13.97,-7.99,0,*45
1507881736.01,56869,15.0,73822.3,1.65,-13.51,-7.73,0,*4E
1507881737.22,56870,15.0,73840.5,1.65,-12.57,-7.19,0,*4D
1507881738.47,56871,15.0,73840.8,1.71,-10.79,-5.97,0,*43
1507881739.71,56872,15.0,73840.8,1.75,-11.73,-6.93,0,*48
1507881740.93,56873,15.0,73852.3,1.77,-13.55,-8.29,0,*42
1507881742.16,56874,15.0,73866.5,1.77,-13.69,-8.29,0,*4A
1507881743.35,56875,15.0,73870.0,1.79,-14.65,-8.75,0,*47
1507881744.59,56876,15.0,73872.8,1.81,-13.33,-7.15,0,*4E
1507881745.84,56877,15.0,73884.8,1.83,-14.55,-7.95,0,*42
1507881747.06,56878,15.0,73894.3,1.85,-15.63,-9.01,0,*4C
1507881748.32,56879,15.0,73900.0,1.85,-17.11,-9.83,0,*40
1507881749.52,56880,15.0,73894.5,1.83,-17.69,-10.23,0,*7D
1507881750.73,56881,15.0,73906.3,1.83,-17.83,-10.09,0,*70
1507881751.96,56882,15.0,73910.8,1.79,-18.69,-10.75,0,*76
1507881753.16,56883,15.0,73912.8,1.79,-18.11,-9.93,0,*48
1507881754.42,56884,15.0,73910.5,1.75,-16.65,-9.11,0,*44
1507881755.65,56885,15.06,73894.5,1.73,-15.21,-8.45,0,*40
1507881756.9,56886,15.06,73888.8,1.73,-13.97,-8.33,0,*49
1507881758.1,56887,15.06,73886.5,1.73,-13.15,-8.67,0,*43
1507881759.38,56888,15.06,73878.8,1.73,-13.29,-9.37,0,*47
1507881760.59,56889,15.06,73882.8,1.73,-12.39,-8.71,0,*45
1507881761.81,56890,15.0,73876.0,1.73,-13.55,-9.93,0,*4B
1507881763.09,56891,15.0,73870.3,1.73,-14.97,-10.67,0,*70
1507881764.31,56892,15.06,73874.5,1.71,-16.37,-11.45,0,*78
1507881765.57,56893,15.06,73878.0,1.69,-17.45,-12.15,0,*72
1507881766.84,56894,15.06,73866.5,1.67,-17.11,-11.29,0,*76
1507881768.03,56895,15.06,73864.8,1.65,-16.97,-10.85,0,*7D
1507881769.23,56896,15.06,73848.0,1.61,-18.45,-12.03,0,*77
1507881770.49,56897,15.06,73842.0,1.61,-17.97,-11.55,0,*76
1507881771.75,56898,15.06,73854.8,1.59,-17.41,-11.11,0,*79
1507881773.0,56899,15.06,73862.0,1.57,-17.07,-10.79,0,*7B
1507881774.22,56900,15.06,73870.5,1.57,-17.59,-11.19,0,*76
1507881775.45,56901,15.06,73882.3,1.57,-19.51,-12.57,0,*78
1507881776.71,56902,15.06,73894.0,1.53,-19.85,-12.71,0,*72
1507881777.96,56903,15.06,73894.5,1.51,-20.83,-13.55,0,*7A
1507881779.18,56904,15.06,73904.8,1.45,-20.35,-13.07,0,*72
1507881780.41,56905,15.06,73910.5,1.45,-18.65,-11.29,0,*73
1507881781.66,56906,15.06,73900.5,1.43,-17.17,-9.89,0,*4F
1507881782.93,56907,15.06,73906.3,1.43,-18.35,-10.97,0,*76
1507881784.13,56908,15.06,73904.0,1.39,-18.21,-10.85,0,*72
1507881785.36,56909,15.06,73906.0,1.43,-17.87,-10.45,0,*71
1507881786.56,56910,15.06,73906.8,1.45,-15.25,-8.21,0,*4E
1507881787.83,56911,15.06,73898.5,1.47,-14.93,-7.77,0,*4D
1507881789.07,56912,15.06,73906.8,1.49,-14.93,-7.77,0,*40
1507881790.33,56913,15.06,73912.8,1.53,-14.51,-7.61,0,*43
1507881791.57,56914,15.06,73930.3,1.55,-14.69,-7.57,0,*4C
1507881792.79,56915,15.06,73920.3,1.57,-14.61,-7.57,0,*47
1507881794.04,56916,15.06,73922.0,1.65,-14.51,-7.57,0,*46
1507881795.26,56917,15.06,73932.3,1.65,-13.97,-6.77,0,*49
1507881796.51,56918,15.06,73920.0,1.69,-14.51,-7.69,0,*49
1507881797.74,56919,15.06,73918.5,1.71,-13.51,-6.89,0,*49
1507881798.98,56920,15.06,73924.3,1.73,-11.51,-5.35,0,*47
1507881800.23,56921,15.06,73932.3,1.77,-11.59,-5.35,0,*4A
1507881801.45,56922,15.06,73936.8,1.81,-13.07,-6.89,0,*4D
1507881802.7,56923,15.06,73924.8,1.81,-16.83,-10.71,0,*75
1507881803.92,56924,15.06,73918.3,1.79,-15.57,-9.89,0,*40
1507881805.17,56925,15.06,73930.3,1.77,-14.05,-8.63,0,*4C
1507881806.37,56926,15.06,73924.8,1.75,-15.15,-9.27,0,*4C
1507881807.58,56927,15.06,73920.0,1.75,-17.69,-11.41,0,*7D
1507881808.81,56928,15.06,73930.3,1.73,-16.59,-10.19,0,*7A
1507881810.03,56929,15.06,73918.0,1.71,-16.41,-9.89,0,*41
1507881811.32,56930,15.06,73924.5,1.71,-17.41,-10.63,0,*74
1507881812.54,56931,15.06,73918.5,1.67,-17.87,-11.11,0,*7C
1507881813.76,56932,15.06,73914.8,1.61,-20.73,-13.83,0,*7F
1507881814.98,56933,15.06,73910.8,1.57,-21.09,-14.51,0,*7F
1507881816.24,56934,15.06,73918.8,1.49,-17.97,-11.89,0,*75
1507881817.44,56935,15.06,73912.5,1.49,-15.95,-9.93,0,*46
1507881818.69,56936,15.06,73910.8,1.47,-15.63,-9.83,0,*43
1507881819.94,56937,15.06,73914.0,1.47,-15.15,-9.41,0,*4D
1507881821.17,56938,15.13,73922.3,1.45,-14.23,-8.51,0,*44
1507881822.39,56939,15.06,73928.0,1.49,-13.55,-8.03,0,*48
1507881823.64,56940,15.06,73932.0,1.51,-13.15,-7.77,0,*47
1507881824.89,56941,15.13,73930.3,1.51,-14.89,-9.37,0,*4E
1507881826.1,56942,15.06,73920.0,1.49,-14.43,-9.31,0,*44
1507881827.38,56943,15.13,73920.8,1.51,-11.77,-7.39,0,*48
1507881828.65,56944,15.13,73928.8,1.51,-11.89,-7.39,0,*4E
1507881829.9,56945,15.13,73928.3,1.51,-13.83,-8.67,0,*43
1507881831.17,56946,15.13,73926.3,1.51,-15.39,-9.61,0,*40
1507881832.45,56947,15.13,73912.3,1.51,-15.43,-9.53,0,*4D
1507881833.65,56948,15.13,73914.0,1.49,-14.15,-8.71,0,*48
1507881834.85,56949,15.06,73912.3,1.49,-14.61,-9.01,0,*4C
1507881836.05,56950,15.06,73902.5,1.49,-14.33,-8.97,0,*4D
1507881837.27,56951,15.13,73904.3,1.49,-12.47,-7.43,0,*4F
1507881838.52,56952,15.13,73892.3,1.49,-12.61,-7.57,0,*4D
1507881839.77,56953,15.13,73890.8,1.47,-12.29,-7.39,0,*46
1507881841.05,56954,15.13,73878.3,1.51,-12.15,-7.61,0,*44
1507881842.32,56955,15.13,73866.8,1.51,-12.65,-7.73,0,*41
1507881843.55,56956,15.13,73858.3,1.55,-11.23,-6.01,0,*43
1507881844.76,56957,15.13,73848.3,1.57,-11.19,-5.69,0,*44
1507881846.04,56958,15.13,73854.5,1.59,-11.77,-6.19,0,*49
1507881847.29,56959,15.13,73864.0,1.67,-11.93,-6.51,0,*43
1507881848.51,56960,15.13,73872.5,1.69,-11.93,-6.73,0,*47
1507881849.73,56961,15.13,73876.5,1.69,-11.37,-5.97,0,*41
1507881850.99,56962,15.13,73878.8,1.73,-12.83,-7.05,0,*4C
1507881852.23,56963,15.13,73876.8,1.77,-12.57,-6.39,0,*4E
1507881853.45,56964,15.13,73880.3,1.79,-12.39,-6.23,0,*44
1507881854.67,56965,15.13,73872.5,1.83,-11.73,-5.39,0,*45
1507881855.91,56966,15.13,73906.3,1.85,-11.77,-5.39,0,*44
1507881857.19,56967,15.13,73894.5,1.93,-11.81,-5.31,0,*43
1507881858.43,56968,15.13,73904.5,1.95,-13.01,-6.63,0,*44
1507881859.63,56969,15.13,73920.3,1.95,-12.89,-6.39,0,*4B
1507881860.88,56970,15.13,73932.0,1.95,-11.51,-5.61,0,*4B
1507881862.1,56971,15.13,73944.8,1.99,-10.45,-5.27,0,*40
1507881863.37,56972,15.13,73916.8,2.01,-13.37,-8.11,0,*4F
1507881864.62,56973,15.13,73926.0,2.01,-11.85,-6.77,0,*4B
1507881865.82,56974,15.13,73938.3,2.03,-10.31,-5.35,0,*45
1507881867.06,56975,15.13,73944.5,2.05,-10.71,-6.01,0,*42
1507881868.29,56976,15.13,73954.0,2.05,-10.93,-6.59,0,*40
1507881869.55,56977,15.13,73926.3,2.03,-16.69,-12.07,0,*7A
1507881870.81,56978,15.13,73910.8,1.97,-16.31,-11.73,0,*76
1507881872.06,56979,15.13,73908.0,1.93,-14.93,-10.09,0,*75
1507881873.28,56980,15.19,73928.5,1.91,-14.43,-9.31,0,*4F
1507881874.5,56981,15.13,73916.5,1.89,-14.29,-8.93,0,*42
1507881875.75,56982,15.13,73922.0,1.85,-18.69,-12.61,0,*73
1507881877.01,56983,15.13,73940.8,1.79,-17.45,-11.73,0,*70
1507881878.27,56984,15.13,73926.3,1.77,-16.09,-10.45,0,*74
1507881879.53,56985,15.13,73898.5,1.75,-14.47,-9.37,0,*42
1507881880.8,56986,15.13,73910.0,1.71,-14.75,-9.83,0,*4B
1507881882.05,56987,15.13,73894.3,1.71,-13.87,-8.93,0,*40
1507881883.26,56988,15.13,73898.5,1.73,-14.29,-9.23,0,*44
1507881884.48,56989,15.13,73894.3,1.71,-14.37,-9.19,0,*41
1507881885.76,56990,15.13,73896.8,1.67,-16.17,-10.67,0,*7F
1507881886.98,56991,15.19,73896.0,1.65,-17.73,-11.73,0,*7B
1507881888.22,56992,15.19,73898.8,1.57,-19.81,-13.87,0,*73
1507881889.45,56993,15.13,73892.0,1.53,-17.25,-11.23,0,*7A
1507881890.7,56994,15.19,73918.5,1.47,-16.93,-11.59,0,*79
1507881891.93,56995,15.19,73914.3,1.45,-14.97,-10.19,0,*79
1507881893.21,56996,15.19,73898.0,1.43,-17.41,-12.61,0,*79
1507881894.45,56997,15.19,73908.3,1.39,-13.97,-8.85,0,*4B
1507881895.66,56998,15.19,73906.3,1.43,-13.47,-8.55,0,*49
1507881896.91,56999,15.19,73878.3,1.43,-12.39,-7.27,0,*4A
1507881898.16,57000,15.19,73882.8,1.47,-12.21,-6.97,0,*45
1507881899.39,57001,15.19,73908.0,1.49,-11.93,-6.47,0,*4D
1507881900.67,57002,15.19,73920.0,1.51,-11.55,-5.89,0,*4C
1507881901.9,57003,15.19,73916.0,1.57,-10.93,-5.31,0,*43
1507881903.09,57004,15.19,73916.5,1.61,-10.89,-5.47,0,*4B
1507881904.34,57005,15.19,73914.8,1.65,-10.67,-5.31,0,*4F
1507881905.6,57006,15.19,73906.3,1.69,-10.67,-5.27,0,*47
1507881906.85,57007,15.19,73904.0,1.73,-11.45,-5.81,0,*40
1507881908.08,57008,15.19,73884.0,1.77,-11.45,-5.43,0,*45
1507881909.35,57009,15.19,73848.3,1.81,-13.79,-7.31,0,*47
1507881910.57,57010,15.19,73896.5,1.83,-15.89,-9.27,0,*4D
1507881911.84,57011,15.19,73930.3,1.85,-13.33,-7.01,0,*47
1507881913.11,57012,15.19,73944.5,1.85,-12.11,-5.81,0,*4F
1507881914.36,57013,15.19,73862.8,1.85,-16.09,-9.67,0,*47
1507881915.55,57014,15.19,73920.0,1.83,-15.71,-9.23,0,*4A
1507881916.8,57015,15.19,73928.0,1.83,-13.83,-7.95,0,*43
1507881918.02,57016,15.19,73908.5,1.83,-13.97,-8.33,0,*46
1507881919.29,57017,15.19,73920.0,1.81,-17.59,-11.55,0,*7B
1507881920.53,57018,15.19,73930.3,1.79,-16.17,-10.15,0,*7D
1507881921.77,57019,15.19,73908.0,1.77,-16.59,-10.27,0,*79
1507881923.0,57020,15.19,73920.0,1.75,-14.47,-8.29,0,*4B
1507881924.22,57021,15.19,73930.3,1.75,-14.75,-8.33,0,*40
1507881925.46,57022,15.19,73954.0,1.77,-15.71,-8.81,0,*4D
1507881926.7,57023,15.19,73940.3,1.77,-18.41,-11.41,0,*76
1507881927.93,57024,15.19,73938.0,1.73,-15.35,-8.55,0,*46
1507881929.18,57025,15.19,73942.0,1.71,-15.53,-9.15,0,*40
1507881930.45,57026,15.19,73942.3,1.73,-14.55,-7.91,0,*44
1507881931.67,57027,15.19,73930.3,1.75,-14.43,-7.53,0,*4A
1507881932.86,57028,15.19,73924.8,1.75,-15.63,-8.59,0,*43
1507881934.08,57029,15.19,73928.8,1.75,-14.61,-7.77,0,*42
1507881935.3,57030,15.19,73934.0,1.73,-16.89,-9.67,0,*47
1507881936.55,57031,15.19,73942.0,1.71,-16.79,-9.83,0,*41
1507881937.8,57032,15.19,73948.3,1.67,-17.93,-11.23,0,*73
1507881939.0,57033,15.19,73936.0,1.61,-18.17,-12.03,0,*76
1507881940.25,57034,15.19,73926.0,1.59,-17.73,-11.77,0,*77
1507881941.47,57035,15.19,73906.5,1.53,-15.11,-9.61,0,*44
1507881942.71,57036,15.19,73898.3,1.53,-11.51,-6.23,0,*4E
1507881943.93,57037,15.19,73886.0,1.57,-10.75,-5.51,0,*4A
1507881945.18,57038,15.19,73932.5,1.59,-10.15,-4.93,0,*42
1507881946.42,57039,15.19,73930.8,1.65,-11.97,-6.93,0,*45
1507881947.61,57040,15.19,73932.3,1.65,-14.33,-8.97,0,*4A
1507881948.84,57041,15.19,73920.8,1.61,-16.45,-10.63,0,*7E
1507881950.08,57042,15.25,73936.0,1.59,-16.97,-10.27,0,*79
1507881951.31,57043,15.19,73898.0,1.57,-16.51,-10.27,0,*7C
1507881952.54,57044,15.19,73898.3,1.53,-19.47,-13.33,0,*71
1507881953.79,57045,15.25,73886.0,1.45,-17.59,-11.29,0,*7F
1507881955.05,57046,15.19,73878.3,1.43,-17.73,-12.07,0,*7D
1507881956.26,57047,15.25,73880.3,1.35,-14.69,-9.45,0,*49
1507881957.46,57048,15.19,73854.3,1.35,-15.95,-11.11,0,*7C
1507881958.68,57049,15.25,73862.5,1.33,-18.65,-13.51,0,*7F
1507881959.94,57050,15.19,73766.0,1.29,-19.31,-14.29,0,*74
1507881961.16,57051,15.25,73734.8,1.23,-14.61,-9.57,0,*42
1507881962.43,57052,15.25,73786.0,1.21,-13.79,-9.15,0,*4B
1507881963.64,57053,15.19,73826.8,1.21,-15.11,-9.89,0,*47
1507881964.89,57054,15.25,73864.8,1.17,-14.65,-9.45,0,*47
1507881966.16,57055,15.25,73888.8,1.21,-13.33,-7.95,0,*44
1507881967.41,57056,15.25,73900.8,1.21,-12.47,-7.27,0,*4C
1507881968.65,57057,15.25,73910.5,1.25,-10.93,-5.93,0,*4F
1507881969.92,57058,15.25,73912.5,1.29,-11.73,-6.93,0,*40
1507881971.19,57059,15.25,73916.3,1.29,-12.79,-8.11,0,*4C
1507881972.41,57060,15.25,73912.5,1.29,-13.23,-8.17,0,*4E
1507881973.64,57061,15.19,73916.5,1.29,-11.45,-6.69,0,*4A
1507881974.86,57062,15.25,73918.3,1.33,-11.41,-6.47,0,*4A
1507881976.11,57063,15.25,73926.8,1.37,-11.01,-6.27,0,*4D
1507881977.38,57064,15.25,73928.5,1.37,-10.63,-5.77,0,*49
1507881978.62,57065,15.25,73934.0,1.43,-9.61,-4.99,0,*70
1507881979.84,57066,15.25,73940.8,1.47,-8.97,-4.49,0,*72
1507881981.06,57067,15.25,73938.5,1.49,-8.07,-4.09,0,*70
1507881982.33,57068,15.25,73934.8,1.55,-9.49,-5.89,0,*70
1507881983.57,57069,15.25,73920.8,1.57,-11.67,-8.03,0,*49
1507881984.82,57070,15.25,73912.3,1.57,-11.51,-8.07,0,*40
1507881986.1,57071,15.25,73910.5,1.55,-11.51,-8.07,0,*43
1507881987.32,57072,15.25,73906.8,1.53,-11.55,-7.83,0,*41
1507881988.57,57073,15.25,73908.5,1.55,-11.67,-7.49,0,*41
1507881989.83,57074,15.25,73908.5,1.55,-11.29,-7.15,0,*45
1507881991.06,57075,15.25,73912.5,1.57,-10.67,-6.43,0,*4F
1507881992.33,57076,15.25,73932.5,1.59,-11.63,-7.27,0,*44
1507881993.58,57077,15.25,73942.0,1.59,-11.51,-6.85,0,*4D
1507881994.81,57078,15.25,73944.3,1.65,-9.49,-4.73,0,*76
1507881996.01,57079,15.25,73954.5,1.69,-10.35,-5.39,0,*47
1507881997.25,57080,15.25,73956.8,1.73,-9.93,-5.03,0,*77
1507881998.49,57081,15.25,73956.3,1.75,-9.61,-4.89,0,*7E
1507881999.74,57082,15.25,73948.0,1.77,-11.85,-7.19,0,*46
1507882000.97,57083,15.25,73950.3,1.79,-11.97,-7.19,0,*4A
1507882002.19,57084,15.25,73954.8,1.81,-10.93,-6.43,0,*41
1507882003.43,57085,15.25,73956.5,1.81,-10.93,-6.23,0,*46
1507882004.7,57086,15.25,73946.3,1.81,-11.89,-7.01,0,*4E
1507882005.94,57087,15.25,73928.5,1.85,-10.49,-5.77,0,*45
1507882007.14,57088,15.25,73910.5,1.91,-10.27,-5.51,0,*43
1507882008.36,57089,15.25,73890.5,1.91,-12.07,-6.89,0,*44
1507882009.61,57090,15.25,73878.0,1.93,-13.01,-7.87,0,*46
1507882010.86,57091,15.25,73904.8,1.93,-13.87,-8.45,0,*48
1507882012.08,57092,15.25,73928.5,1.93,-13.47,-7.87,0,*46
1507882013.33,57093,15.25,73946.8,1.93,-13.73,-7.99,0,*4F
1507882014.54,57094,15.25,73950.5,1.95,-14.75,-8.75,0,*42
1507882015.79,57095,15.25,73920.3,1.93,-14.47,-8.59,0,*4A
1507882017.01,57096,15.25,73918.8,1.93,-14.65,-8.63,0,*40
1507882018.26,57097,15.25,73914.3,1.93,-13.51,-7.65,0,*48
1507882019.51,57098,15.25,73916.3,1.93,-13.07,-7.31,0,*45
1507882020.73,57099,15.25,73900.5,1.95,-13.11,-7.43,0,*40
1507882021.95,57100,15.25,73900.5,1.95,-13.23,-7.99,0,*47
1507882023.19,57101,15.25,73894.8,1.95,-14.75,-9.57,0,*4E
1507882024.44,57102,15.25,73890.0,1.93,-15.07,-9.83,0,*46
1507882025.68,57103,15.25,73882.8,1.93,-15.07,-9.83,0,*47
1507882026.94,57104,15.25,73896.0,1.93,-15.39,-10.35,0,*78
1507882028.18,57105,15.25,73902.8,1.91,-15.39,-10.15,0,*79
1507882029.45,57106,15.25,73904.5,1.85,-17.11,-11.77,0,*72
1507882030.67,57107,15.25,73906.5,1.83,-16.75,-11.33,0,*76
1507882031.93,57108,15.25,73906.0,1.79,-17.97,-12.35,0,*74
1507882033.16,57109,15.25,73918.0,1.75,-18.41,-12.61,0,*7C
1507882034.39,57110,15.25,73918.5,1.71,-20.43,-14.37,0,*7C
1507882035.62,57111,15.25,73910.3,1.65,-19.41,-13.19,0,*7B
1507882036.87,57112,15.31,73926.0,1.61,-17.07,-10.75,0,*79
1507882038.13,57113,15.25,73934.5,1.59,-14.51,-8.89,0,*49
1507882039.4,57114,15.25,73930.5,1.59,-12.57,-6.97,0,*4F
1507882040.63,57115,15.25,73936.0,1.61,-12.75,-7.19,0,*42
1507882041.84,57116,15.25,73928.5,1.65,-14.79,-9.31,0,*4B
1507882043.06,57117,15.25,73930.3,1.65,-12.93,-7.57,0,*46
1507882044.33,57118,15.25,73940.8,1.67,-13.33,-8.07,0,*4A
1507882045.57,57119,15.31,73936.0,1.67,-13.97,-8.63,0,*47
1507882046.76,57120,15.25,73930.5,1.69,-14.33,-9.31,0,*4C
1507882047.98,57121,15.25,73934.3,1.69,-14.61,-9.45,0,*49
1507882049.23,57122,15.31,73944.0,1.67,-17.59,-12.25,0,*70
1507882050.43,57123,15.25,73940.8,1.61,-18.99,-13.43,0,*75
1507882051.66,57124,15.25,73920.5,1.57,-18.79,-12.75,0,*7D
1507882052.86,57125,15.25,73930.0,1.53,-16.45,-10.05,0,*7C
1507882054.05,57126,15.31,73936.3,1.53,-15.71,-9.19,0,*4E
1507882055.26,57127,15.31,73922.8,1.53,-15.21,-8.67,0,*42
1507882056.55,57128,15.31,73936.3,1.55,-13.97,-8.07,0,*46
1507882057.83,57129,15.31,73918.8,1.55,-14.83,-9.11,0,*43
1507882059.06,57130,15.31,73918.0,1.53,-15.57,-10.27,0,*78
1507882060.29,57131,15.31,73928.5,1.53,-13.97,-8.89,0,*4E
1507882061.54,57132,15.31,73902.8,1.51,-12.71,-7.23,0,*49
1507882062.77,57133,15.25,73896.8,1.53,-11.85,-6.55,0,*42
1507882063.99,57134,15.31,73908.8,1.53,-10.53,-5.31,0,*4E
1507882065.21,57135,15.31,73908.5,1.61,-9.11,-3.95,0,*78
1507882066.44,57136,15.31,73904.5,1.65,-9.57,-4.85,0,*7B
1507882067.68,57137,15.31,73918.8,1.67,-9.93,-5.23,0,*7D
1507882068.92,57138,15.31,73928.3,1.71,-9.31,-4.89,0,*7C
1507882070.16,57139,15.31,73920.3,1.73,-9.79,-5.65,0,*70
1507882071.4,57140,15.31,73924.3,1.73,-9.79,-5.69,0,*72
1507882072.65,57141,15.31,73928.8,1.77,-9.41,-5.35,0,*75
1507882073.9,57142,15.31,73926.8,1.81,-9.19,-5.03,0,*77
1507882075.11,57143,15.31,73950.0,1.81,-8.37,-4.29,0,*72
1507882076.38,57144,15.31,73932.5,1.85,-9.41,-5.65,0,*78
1507882077.62,57145,15.31,73918.8,1.83,-10.75,-6.93,0,*4A
1507882078.85,57146,15.31,73922.8,1.83,-11.07,-7.23,0,*47
1507882080.08,57147,15.31,73916.5,1.83,-11.07,-7.15,0,*43
1507882081.27,57148,15.31,73926.3,1.83,-9.27,-5.43,0,*76
1507882082.48,57149,15.31,73930.5,1.85,-8.33,-4.61,0,*74
1507882083.71,57150,15.31,73928.8,1.91,-7.31,-3.63,0,*71
1507882084.93,57151,15.31,73940.0,1.91,-10.89,-7.31,0,*46
1507882086.15,57152,15.31,73940.3,1.89,-12.29,-8.63,0,*4C
1507882087.38,57153,15.31,73930.5,1.89,-13.51,-9.79,0,*49
1507882088.62,57154,15.31,73910.5,1.83,-13.61,-9.61,0,*4E
1507882089.84,57155,15.31,73918.3,1.79,-13.19,-8.81,0,*4A
1507882091.09,57156,15.31,73920.8,1.79,-11.97,-7.57,0,*49
1507882092.29,57157,15.31,73920.8,1.79,-11.11,-6.43,0,*42
1507882093.5,57158,15.31,73914.5,1.79,-10.97,-6.39,0,*4F
1507882094.72,57159,15.31,73916.3,1.79,-10.31,-5.89,0,*4A
1507882095.95,57160,15.31,73914.8,1.83,-11.07,-6.31,0,*41
1507882097.2,57161,15.31,73914.3,1.83,-9.37,-4.85,0,*77
1507882098.46,57162,15.31,73922.8,1.89,-9.57,-5.31,0,*76
1507882099.68,57163,15.31,73916.3,1.89,-10.49,-6.51,0,*45
1507882100.9,57164,15.31,73908.0,1.91,-10.31,-6.63,0,*45
1507882102.1,57165,15.31,73914.5,1.91,-10.45,-7.19,0,*4B
1507882103.3,57166,15.31,73916.3,1.91,-10.27,-7.11,0,*44
1507882104.57,57167,15.31,73914.3,1.89,-12.79,-9.11,0,*4B
1507882105.82,57168,15.31,73920.5,1.85,-13.61,-9.93,0,*4A
1507882107.04,57169,15.31,73922.0,1.83,-11.77,-7.87,0,*43
1507882108.23,57170,15.31,73918.5,1.83,-10.09,-6.35,0,*4B
1507882109.49,57171,15.31,73920.0,1.81,-11.81,-7.91,0,*46